TRANSPORTER-15 T (66683 NORAD) Tracking and Keplerian Element Data

This shows tracking and keplerian element data for the satellite.

Feedback or suggestion? Click here.




ElementValue
Catalog66683
NameTRANSPORTER-15 T
Epoch Orbit325
Epoch Day354.19696365
Epoch Year2025
RAAN65.827
Inclination97.4462
Eccentricity0.0004611
Argument of Perigee253.4472
Mean Anonmoly106.6255
Mean Motion15.16976032
Decay Rate4.696E-05
L11 66683U 25276T 25354.19696365 .00004696 00000+0 24112-3 0 9992
L22 66683 97.4462 65.8270 0004611 253.4472 106.6255 15.16976032 3255



Live tracking and technical data element details for TRANSPORTER-15 T (NORAD 66683). TRANSPORTER-15 T can be tracked NOW for your location showing map with azimuth and elevation plus other details from your city location.







IsCatalogInMostPopularTable: catalog: 66683, numindb: 16
Update: records affected: 1



GetName: 66683 TRANSPORTER-15 T

Hit Count: updated at: Mon, 20 Apr 2026 10:40:54 GMT